User: anonymous   Login
Location: Observatoire
(46.1952°N, 5.3391°E)
Time: 00:37:15
(UTC+02:00)
Language:

XW-2C - Orbit

View from above orbital plane
View from above orbital plane
View from above satellite
View from above satellite

Ground track
Ground track

The orbit data is extracted from the following two-line orbital elements,

1 40906U 15049H   24109.49755612  .00035355  00000-0  93056-3 0  9990
2 40906  97.4843 124.9144 0010668 146.0210 214.1720 15.38414474475280
Epoch (UTC): 18 April 2024 11:56:28
Eccentricity: 0.0010668
inclination: 97.4843°
perigee height: 443 km
apogee height: 458 km
right ascension of ascending node: 124.9144°
argument of perigee: 146.0210°
revolutions per day: 15.38414474
mean anomaly at epoch: 214.1720°
orbit number at epoch: 47528

The dashed part of the orbit path shows where the satellite is in the earth's shadow,  

DLR